Tracking 19564 objects as of 19-Mar-2019
HD Live streaming from Space Station
objects crossing your sky now

COMSTAR 1

Track COMSTAR 1 now!
COMSTAR 1 is classified as:


NORAD ID: 8838
Int'l Code: 1976-042A
Perigee: 35,890.9 km
Apogee: 35,947.9 km
Inclination: 13.2 °
Period: 1,442.5 minutes
Semi major axis: 42290 km
RCS: 2.2754 m2 (large)
Launch date: May 13, 1976
Source: United States (US)
Launch site: AIR FORCE EASTERN TEST RANGE (AFETR)
aabbcc
Your satellite tracking list
Your tracking list is empty




NASA's NSSDC Master Catalog

Two Line Element Set (TLE):
1  8838U 76042A   19077.59230927 -.00000366 +00000-0 +00000-0 0  9993
2  8838 013.1738 329.1105 0006732 333.7394 210.5979 00.99825175094140
Source of the keplerian elements: AFSPC